Location: Sungai Apap
(2.6167°N, 113.3833°E)
Time: 12:46:31
(UTC+00:00)

GOES 2 Rocket - Pass Details

Date: 25 May 2024
Orbit: 569 x 1666 km, 28.4° (Epoch: 14 June)

Event Time Altitude Azimuth Distance (km) Brightness Sun altitude
Exits shadow 20:15:58 66° 311° (NW) 1,038 3.9 -28.4°
Maximum altitude 20:16:19 68° 332° (NNW) 1,041 4.0 -28.3°
Drops below altitude 10° 20:23:56 10° 53° (NE) 3,153 7.6 -26.6°
Sets 20:27:15 0° 56° (NE) 4,299 8.7 -25.9°
